カタログに戻る

DELTA 1 DEB

運用中SSO
NORAD 7053·DEBRIS·🇺🇸 United States

打ち上げ Nov 6, 1973 から Vandenberg Space Force Base

Loading…

次のパス (今後24時間)

TLE

最新Source: Space-Track

元期: Sep 14, 2026, 03:39 UTC

1 07053U 73086AV  26257.15232770 -.00000047  00000-0 -22619-4 0  9995
2 07053 101.7413 330.5655 0047559 134.4449 339.2273 12.48626154405344

AllMySatでDELTA 1 DEBをリアルタイム追跡

Download on the App Store